Location: Newark
(40.7060°N, 73.9980°W)
Time: 12:44:01
(UTC+00:00)

N. Korean satellite - Visible Passes

Search period start: 17 November 2019 00:00
Search period end: 27 November 2019 00:00
Orbit: 456 x 506 km, 97.2° (Epoch: 16 November)

Date Brightness Start Highest point End Pass type
(mag) Time Alt. Az. Time Alt. Az. Time Alt. Az.
17 Nov 9.0 10:11:15 10° NE 10:14:25 26° E 10:17:30 10° SSE visible
17 Nov 7.6 22:18:55 10° S 22:22:26 52° W 22:26:03 10° NNW visible
18 Nov 10.1 09:47:05 10° ENE 09:48:51 13° E 09:50:36 10° ESE visible
19 Nov 6.6 10:53:23 10° N 10:57:06 84° WNW 11:00:45 10° SSW visible
19 Nov 9.9 23:03:05 10° SW 23:05:16 15° W 23:07:28 10° NW visible
20 Nov 7.9 10:28:09 10° NNE 10:31:42 43° E 10:35:10 10° S visible
20 Nov 8.8 22:36:28 10° SSW 22:39:43 30° W 22:43:01 10° NNW visible
21 Nov 9.4 10:03:21 10° NE 10:06:11 21° E 10:08:59 10° SE visible
21 Nov 7.1 22:10:39 10° S 22:14:15 67° W 22:17:57 10° NNW visible
22 Nov 10.3 09:40:17 10° E 09:40:35 10° E 09:40:52 10° E visible
22 Nov 6.8 11:10:41 10° N 11:14:15 48° WNW 11:17:45 10° SSW visible
23 Nov 6.8 10:45:13 10° NNE 10:48:54 76° ESE 10:52:31 10° S visible
23 Nov 9.7 22:54:20 10° SW 22:57:00 19° W 22:59:41 10° NW visible
24 Nov 8.5 10:20:05 10° NNE 10:23:27 33° E 10:26:45 10° SSE visible
24 Nov 8.3 22:28:01 10° SSW 22:31:28 39° W 22:34:58 10° NNW visible
25 Nov 9.7 09:55:31 10° NE 09:57:54 16° E 10:00:16 10° SE visible
25 Nov 6.7 22:02:22 10° SSE 22:06:02 87° WSW 22:09:46 10° NNW visible
26 Nov 6.6 11:02:26 10° N 11:06:03 62° WNW 11:09:35 10° SSW visible
26 Nov 10.2 23:12:54 10° WSW 23:14:18 12° W 23:15:42 10° WNW visible
